Wetterdaten: Donnerstag, 05.03.2015
Datum Zeit Auen-Temp. Temp. -10 cm Luftfeuchte Luftfeuchte Luftdruck Regen Wind Richtung Richtung Taupunkt Windchill Windben
05.03.2015 00:00 -0,9 C 1,1 C 74 % 74 % 1030,3 hPa 0,0 l/m 4,0 km/h (1 Bft) SW 225 -4,9 C -2,9 C 3,1 km/h (1 Bft)
05.03.2015 00:05 -0,9 C 1,1 C 74 % 74 % 1030,3 hPa 0,0 l/m 4,2 km/h (1 Bft) S 180 -4,9 C -3,0 C 7,9 km/h (2 Bft)
05.03.2015 00:10 -0,9 C 1,1 C 74 % 74 % 1030,3 hPa 0,0 l/m 4,5 km/h (1 Bft) S 180 -4,9 C -3,2 C 5,8 km/h (2 Bft)
05.03.2015 00:15 -0,9 C 1,1 C 74 % 74 % 1030,5 hPa 0,0 l/m 3,9 km/h (1 Bft) SW 225 -4,9 C -2,8 C 3,2 km/h (1 Bft)
05.03.2015 00:20 -1,0 C 1,1 C 74 % 74 % 1030,5 hPa 0,0 l/m 3,1 km/h (1 Bft) W-SW 247 -5,0 C -2,4 C 3,9 km/h (1 Bft)
05.03.2015 00:25 -1,1 C 1,1 C 74 % 74 % 1030,5 hPa 0,0 l/m 2,4 km/h (1 Bft) SW 225 -5,1 C -1,9 C 3,1 km/h (1 Bft)
05.03.2015 00:30 -1,0 C 1,1 C 74 % 74 % 1030,5 hPa 0,0 l/m 3,7 km/h (1 Bft) W-SW 247 -5,0 C -3,0 C 9,0 km/h (2 Bft)
05.03.2015 00:35 -1,0 C 1,1 C 75 % 75 % 1030,6 hPa 0,0 l/m 4,2 km/h (1 Bft) S-SW 202 -4,9 C -3,2 C 4,8 km/h (1 Bft)
05.03.2015 00:40 -0,9 C 1,1 C 75 % 75 % 1030,6 hPa 0,0 l/m 4,3 km/h (1 Bft) SW 225 -4,8 C -3,2 C 3,2 km/h (1 Bft)
05.03.2015 00:45 -0,9 C 1,1 C 75 % 75 % 1030,6 hPa 0,0 l/m 4,0 km/h (1 Bft) SW 225 -4,8 C -3,0 C 4,0 km/h (1 Bft)
05.03.2015 00:50 -0,9 C 1,1 C 75 % 75 % 1030,6 hPa 0,0 l/m 3,5 km/h (1 Bft) SW 225 -4,8 C -2,7 C 4,3 km/h (1 Bft)
05.03.2015 00:55 -1,0 C 1,1 C 75 % 75 % 1030,8 hPa 0,0 l/m 3,9 km/h (1 Bft) S 180 -4,9 C -2,9 C 4,5 km/h (1 Bft)
05.03.2015 01:00 -1,1 C 1,1 C 75 % 75 % 1030,8 hPa 0,0 l/m 4,3 km/h (1 Bft) S 180 -5,0 C -3,4 C 6,1 km/h (2 Bft)
05.03.2015 01:05 -1,1 C 1,1 C 75 % 75 % 1030,8 hPa 0,0 l/m 4,0 km/h (1 Bft) SW 225 -5,0 C -3,2 C 3,4 km/h (1 Bft)
05.03.2015 01:10 -1,1 C 1,1 C 75 % 75 % 1030,8 hPa 0,0 l/m 3,5 km/h (1 Bft) S 180 -5,0 C -2,9 C 5,8 km/h (2 Bft)
05.03.2015 01:15 -1,1 C 1,1 C 75 % 75 % 1031,0 hPa 0,0 l/m 3,1 km/h (1 Bft) W-SW 247 -5,0 C -2,6 C 4,2 km/h (1 Bft)
05.03.2015 01:20 -1,2 C 1,1 C 75 % 75 % 1031,0 hPa 0,0 l/m 3,4 km/h (1 Bft) S-SO 157 -5,0 C -2,9 C 5,1 km/h (1 Bft)
05.03.2015 01:25 -1,3 C 1,1 C 75 % 75 % 1031,0 hPa 0,0 l/m 3,4 km/h (1 Bft) S-SW 202 -5,1 C -3,0 C 4,8 km/h (1 Bft)
05.03.2015 01:30 -1,5 C 1,1 C 75 % 75 % 1031,0 hPa 0,0 l/m 3,5 km/h (1 Bft) S 180 -5,3 C -3,4 C 4,2 km/h (1 Bft)
05.03.2015 01:35 -1,5 C 1,1 C 75 % 75 % 1030,9 hPa 0,0 l/m 3,2 km/h (1 Bft) S-SW 202 -5,3 C -3,3 C 4,8 km/h (1 Bft)
05.03.2015 01:40 -1,5 C 1,1 C 75 % 75 % 1030,9 hPa 0,0 l/m 3,9 km/h (1 Bft) S 180 -5,3 C -3,8 C 6,1 km/h (2 Bft)
05.03.2015 01:45 -1,4 C 1,1 C 75 % 75 % 1030,9 hPa 0,0 l/m 4,3 km/h (1 Bft) S 180 -5,2 C -4,1 C 5,5 km/h (1 Bft)
05.03.2015 01:50 -1,3 C 1,1 C 75 % 75 % 1030,9 hPa 0,0 l/m 3,9 km/h (1 Bft) SW 225 -5,1 C -3,7 C 3,4 km/h (1 Bft)
05.03.2015 01:55 -1,5 C 1,1 C 75 % 75 % 1031,0 hPa 0,0 l/m 3,2 km/h (1 Bft) S-SW 202 -5,3 C -3,2 C 4,7 km/h (1 Bft)
05.03.2015 02:00 -1,3 C 1,1 C 75 % 75 % 1031,0 hPa 0,0 l/m 3,4 km/h (1 Bft) SW 225 -5,1 C -3,2 C 8,5 km/h (2 Bft)
05.03.2015 02:05 -1,3 C 1,1 C 75 % 75 % 1031,0 hPa 0,0 l/m 3,9 km/h (1 Bft) W-SW 247 -5,1 C -3,5 C 10,0 km/h (2 Bft)
05.03.2015 02:10 -1,3 C 1,1 C 75 % 75 % 1031,0 hPa 0,0 l/m 3,7 km/h (1 Bft) S-SW 202 -5,1 C -3,3 C 3,1 km/h (1 Bft)
05.03.2015 02:15 -1,3 C 1,1 C 75 % 75 % 1031,0 hPa 0,0 l/m 3,5 km/h (1 Bft) S 180 -5,1 C -3,3 C 4,2 km/h (1 Bft)
05.03.2015 02:20 -1,3 C 1,1 C 76 % 76 % 1031,0 hPa 0,0 l/m 4,0 km/h (1 Bft) S-SO 157 -5,0 C -3,6 C 6,1 km/h (2 Bft)
05.03.2015 02:25 -1,3 C 1,1 C 76 % 76 % 1031,0 hPa 0,0 l/m 4,8 km/h (1 Bft) SW 225 -5,0 C -4,1 C 7,9 km/h (2 Bft)
05.03.2015 02:30 -1,1 C 1,1 C 76 % 76 % 1031,0 hPa 0,0 l/m 5,1 km/h (1 Bft) W-SW 247 -4,8 C -3,9 C 4,5 km/h (1 Bft)
05.03.2015 02:35 -1,1 C 1,1 C 76 % 76 % 1031,1 hPa 0,0 l/m 4,5 km/h (1 Bft) SW 225 -4,8 C -3,5 C 3,7 km/h (1 Bft)
05.03.2015 02:40 -1,1 C 1,1 C 76 % 76 % 1031,1 hPa 0,0 l/m 4,0 km/h (1 Bft) W-SW 247 -4,8 C -3,1 C 10,8 km/h (2 Bft)
05.03.2015 02:45 -1,2 C 1,1 C 76 % 76 % 1031,1 hPa 0,0 l/m 4,3 km/h (1 Bft) SW 225 -4,9 C -3,3 C 10,8 km/h (2 Bft)
05.03.2015 02:50 -1,2 C 1,1 C 76 % 76 % 1031,1 hPa 0,0 l/m 4,0 km/h (1 Bft) W-SW 247 -4,9 C -3,1 C 2,6 km/h (1 Bft)
05.03.2015 02:55 -1,1 C 1,1 C 76 % 76 % 1031,1 hPa 0,0 l/m 4,3 km/h (1 Bft) W 270 -4,8 C -3,3 C 5,5 km/h (1 Bft)
05.03.2015 03:00 -1,1 C 1,1 C 76 % 76 % 1031,1 hPa 0,0 l/m 4,3 km/h (1 Bft) SW 225 -4,8 C -3,2 C 4,3 km/h (1 Bft)
05.03.2015 03:05 -1,1 C 1,1 C 76 % 76 % 1031,1 hPa 0,0 l/m 4,3 km/h (1 Bft) W-NW 292 -4,8 C -3,2 C 8,4 km/h (2 Bft)
05.03.2015 03:10 -1,3 C 1,1 C 77 % 77 % 1031,1 hPa 0,0 l/m 4,0 km/h (1 Bft) W-SW 247 -4,8 C -3,1 C 4,8 km/h (1 Bft)
05.03.2015 03:15 -1,3 C 1,1 C 77 % 77 % 1031,1 hPa 0,0 l/m 4,0 km/h (1 Bft) W 270 -4,8 C -3,2 C 6,9 km/h (2 Bft)
05.03.2015 03:20 -1,4 C 1,1 C 77 % 77 % 1031,1 hPa 0,0 l/m 3,9 km/h (1 Bft) W-SW 247 -4,9 C -3,2 C 2,7 km/h (1 Bft)
05.03.2015 03:25 -1,4 C 1,1 C 78 % 78 % 1031,1 hPa 0,0 l/m 3,7 km/h (1 Bft) SW 225 -4,7 C -3,1 C 5,5 km/h (1 Bft)
05.03.2015 03:30 -1,4 C 1,1 C 78 % 78 % 1031,1 hPa 0,0 l/m 3,9 km/h (1 Bft) W-SW 247 -4,7 C -3,2 C 5,3 km/h (1 Bft)
05.03.2015 03:35 -1,5 C 1,1 C 78 % 78 % 1031,2 hPa 0,0 l/m 3,5 km/h (1 Bft) SW 225 -4,8 C -3,1 C 3,4 km/h (1 Bft)
05.03.2015 03:40 -1,7 C 1,1 C 78 % 78 % 1031,2 hPa 0,0 l/m 3,9 km/h (1 Bft) S-SW 202 -5,0 C -3,8 C 3,4 km/h (1 Bft)
05.03.2015 03:45 -1,7 C 1,1 C 78 % 78 % 1031,2 hPa 0,0 l/m 4,3 km/h (1 Bft) SW 225 -5,0 C -4,2 C 5,8 km/h (2 Bft)
05.03.2015 03:50 -1,7 C 1,1 C 79 % 79 % 1031,2 hPa 0,0 l/m 3,5 km/h (1 Bft) W-SW 247 -4,8 C -3,7 C 5,8 km/h (2 Bft)
05.03.2015 03:55 -1,8 C 1,1 C 79 % 79 % 1031,2 hPa 0,0 l/m 3,1 km/h (1 Bft) SW 225 -4,9 C -3,4 C 2,1 km/h (1 Bft)
05.03.2015 04:00 -1,9 C 1,1 C 79 % 79 % 1031,2 hPa 0,0 l/m 2,7 km/h (1 Bft) W-SW 247 -5,0 C -3,1 C 3,7 km/h (1 Bft)
05.03.2015 04:05 -1,9 C 1,1 C 79 % 79 % 1031,2 hPa 0,0 l/m 2,6 km/h (1 Bft) W-SW 247 -5,0 C -3,0 C 3,4 km/h (1 Bft)
05.03.2015 04:10 -1,8 C 1,1 C 79 % 79 % 1031,2 hPa 0,0 l/m 2,3 km/h (1 Bft) W 270 -4,9 C -2,7 C 2,3 km/h (1 Bft)
05.03.2015 04:15 -1,7 C 1,1 C 79 % 79 % 1031,4 hPa 0,0 l/m 2,9 km/h (1 Bft) W 270 -4,8 C -3,1 C 8,4 km/h (2 Bft)
05.03.2015 04:20 -1,7 C 1,1 C 79 % 79 % 1031,4 hPa 0,0 l/m 3,7 km/h (1 Bft) W-SW 247 -4,8 C -3,4 C 11,3 km/h (2 Bft)
05.03.2015 04:25 -1,7 C 1,1 C 79 % 79 % 1031,4 hPa 0,0 l/m 5,3 km/h (1 Bft) W-NW 292 -4,8 C -4,2 C 10,9 km/h (2 Bft)
05.03.2015 04:30 -1,7 C 1,1 C 79 % 79 % 1031,4 hPa 0,0 l/m 6,6 km/h (2 Bft) W-SW 247 -4,8 C -4,6 C 3,7 km/h (1 Bft)
05.03.2015 04:35 -1,7 C 1,1 C 79 % 79 % 1031,2 hPa 0,0 l/m 6,3 km/h (2 Bft) S 180 -4,8 C -4,3 C 4,2 km/h (1 Bft)
05.03.2015 04:40 -1,7 C 1,1 C 79 % 79 % 1031,2 hPa 0,0 l/m 5,0 km/h (1 Bft) N 360 -4,8 C -3,6 C 12,7 km/h (3 Bft)
05.03.2015 04:45 -1,7 C 1,1 C 79 % 79 % 1031,2 hPa 0,0 l/m 4,7 km/h (1 Bft) W 270 -4,8 C -3,4 C 9,8 km/h (2 Bft)
05.03.2015 04:50 -1,7 C 1,1 C 79 % 79 % 1031,2 hPa 0,0 l/m 4,2 km/h (1 Bft) SW 225 -4,8 C -3,2 C 2,6 km/h (1 Bft)
05.03.2015 04:55 -1,7 C 1,1 C 79 % 79 % 1031,3 hPa 0,0 l/m 3,9 km/h (1 Bft) W-SW 247 -4,8 C -3,1 C 2,1 km/h (1 Bft)
05.03.2015 05:00 -1,5 C 1,1 C 79 % 79 % 1031,3 hPa 0,0 l/m 3,2 km/h (1 Bft) S 180 -4,7 C -2,9 C 7,9 km/h (2 Bft)
05.03.2015 05:05 -1,6 C 1,1 C 79 % 79 % 1031,3 hPa 0,0 l/m 3,5 km/h (1 Bft) SW 225 -4,8 C -3,3 C 2,7 km/h (1 Bft)
05.03.2015 05:10 -1,9 C 1,1 C 79 % 79 % 1031,3 hPa 0,0 l/m 3,5 km/h (1 Bft) W-SW 247 -5,0 C -3,7 C 2,6 km/h (1 Bft)
05.03.2015 05:15 -1,9 C 1,1 C 79 % 79 % 1031,4 hPa 0,0 l/m 2,9 km/h (1 Bft) SW 225 -5,0 C -3,3 C 0,0 km/h (0 Bft)
05.03.2015 05:20 -1,7 C 1,1 C 79 % 79 % 1031,4 hPa 0,0 l/m 1,6 km/h (1 Bft) W 270 -4,8 C -2,7 C 3,9 km/h (1 Bft)
05.03.2015 05:25 -1,6 C 1,1 C 79 % 79 % 1031,4 hPa 0,0 l/m 2,1 km/h (1 Bft) O-NO 67 -4,8 C -2,5 C 7,1 km/h (2 Bft)
05.03.2015 05:30 -1,6 C 1,1 C 79 % 79 % 1031,4 hPa 0,0 l/m 3,4 km/h (1 Bft) SW 225 -4,8 C -3,3 C 2,6 km/h (1 Bft)
05.03.2015 05:35 -1,6 C 1,1 C 79 % 79 % 1031,4 hPa 0,0 l/m 3,4 km/h (1 Bft) SW 225 -4,8 C -3,2 C 3,7 km/h (1 Bft)
05.03.2015 05:40 -1,6 C 1,1 C 79 % 79 % 1031,4 hPa 0,0 l/m 3,1 km/h (1 Bft) SW 225 -4,8 C -3,0 C 3,7 km/h (1 Bft)
05.03.2015 05:45 -1,6 C 1,1 C 79 % 79 % 1031,4 hPa 0,0 l/m 3,1 km/h (1 Bft) W-SW 247 -4,8 C -3,0 C 3,4 km/h (1 Bft)
05.03.2015 05:50 -1,7 C 1,1 C 79 % 79 % 1031,4 hPa 0,0 l/m 2,7 km/h (1 Bft) W-SW 247 -4,8 C -2,7 C 1,9 km/h (1 Bft)
05.03.2015 05:55 -1,7 C 1,1 C 79 % 79 % 1031,6 hPa 0,0 l/m 2,6 km/h (1 Bft) W-SW 247 -4,8 C -2,6 C 2,6 km/h (1 Bft)
05.03.2015 06:00 -1,8 C 1,1 C 79 % 79 % 1031,6 hPa 0,0 l/m 1,6 km/h (1 Bft) SW 225 -4,9 C -2,3 C 2,3 km/h (1 Bft)
05.03.2015 06:05 -1,9 C 1,1 C 80 % 80 % 1031,6 hPa 0,0 l/m 1,9 km/h (1 Bft) SW 225 -4,9 C -2,4 C 2,3 km/h (1 Bft)
05.03.2015 06:10 -1,9 C 1,1 C 81 % 81 % 1031,6 hPa 0,0 l/m 1,6 km/h (1 Bft) W-SW 247 -4,7 C -2,5 C 0,0 km/h (0 Bft)
05.03.2015 06:15 -1,9 C 1,1 C 81 % 81 % 1031,4 hPa 0,0 l/m 1,6 km/h (1 Bft) SW 225 -4,7 C -2,6 C 3,9 km/h (1 Bft)
05.03.2015 06:20 -1,9 C 1,1 C 81 % 81 % 1031,4 hPa 0,0 l/m 2,4 km/h (1 Bft) W-NW 292 -4,7 C -2,8 C 2,7 km/h (1 Bft)
05.03.2015 06:25 -1,9 C 1,1 C 82 % 82 % 1031,4 hPa 0,0 l/m 3,1 km/h (1 Bft) W-SW 247 -4,6 C -3,4 C 3,9 km/h (1 Bft)
05.03.2015 06:30 -1,9 C 1,1 C 82 % 82 % 1031,4 hPa 0,0 l/m 2,6 km/h (1 Bft) W-NW 292 -4,6 C -3,0 C 3,1 km/h (1 Bft)
05.03.2015 06:35 -1,9 C 1,1 C 82 % 82 % 1031,4 hPa 0,0 l/m 3,1 km/h (1 Bft) W-SW 247 -4,6 C -3,3 C 4,7 km/h (1 Bft)
05.03.2015 06:40 -2,0 C 1,1 C 83 % 83 % 1031,4 hPa 0,0 l/m 3,1 km/h (1 Bft) W 270 -4,5 C -3,4 C 2,6 km/h (1 Bft)
05.03.2015 06:45 -2,0 C 1,1 C 83 % 83 % 1031,4 hPa 0,0 l/m 2,7 km/h (1 Bft) W-SW 247 -4,5 C -3,0 C 5,6 km/h (1 Bft)
05.03.2015 06:50 -2,0 C 1,1 C 83 % 83 % 1031,4 hPa 0,0 l/m 3,2 km/h (1 Bft) W 270 -4,5 C -3,4 C 6,4 km/h (2 Bft)
05.03.2015 06:55 -2,0 C 1,1 C 83 % 83 % 1031,6 hPa 0,0 l/m 3,2 km/h (1 Bft) W-SW 247 -4,5 C -3,4 C 3,4 km/h (1 Bft)
05.03.2015 07:00 -1,9 C 1,1 C 83 % 83 % 1031,6 hPa 0,0 l/m 3,5 km/h (1 Bft) W-SW 247 -4,4 C -3,7 C 9,3 km/h (2 Bft)
05.03.2015 07:05 -1,9 C 1,1 C 83 % 83 % 1031,6 hPa 0,0 l/m 4,3 km/h (1 Bft) W-NW 292 -4,4 C -4,2 C 7,1 km/h (2 Bft)
05.03.2015 07:10 -1,8 C 1,1 C 83 % 83 % 1031,6 hPa 0,0 l/m 4,3 km/h (1 Bft) W 270 -4,3 C -4,1 C 7,1 km/h (2 Bft)
05.03.2015 07:15 -1,8 C 1,1 C 83 % 83 % 1031,8 hPa 0,0 l/m 4,0 km/h (1 Bft) W-SW 247 -4,3 C -3,9 C 7,1 km/h (2 Bft)
05.03.2015 07:20 -1,8 C 1,1 C 83 % 83 % 1031,8 hPa 0,0 l/m 3,7 km/h (1 Bft) S-SW 202 -4,3 C -3,6 C 3,4 km/h (1 Bft)
05.03.2015 07:25 -1,7 C 1,1 C 83 % 83 % 1031,8 hPa 0,0 l/m 3,9 km/h (1 Bft) W-SW 247 -4,2 C -3,7 C 2,3 km/h (1 Bft)
05.03.2015 07:30 -1,6 C 1,1 C 83 % 83 % 1031,8 hPa 0,0 l/m 3,7 km/h (1 Bft) SW 225 -4,1 C -3,4 C 4,5 km/h (1 Bft)
05.03.2015 07:35 -1,5 C 1,1 C 83 % 83 % 1031,9 hPa 0,0 l/m 4,2 km/h (1 Bft) W-SW 247 -4,0 C -3,6 C 6,0 km/h (2 Bft)
05.03.2015 07:40 -1,2 C 1,1 C 82 % 82 % 1031,9 hPa 0,0 l/m 4,2 km/h (1 Bft) W-SW 247 -3,9 C -3,3 C 4,8 km/h (1 Bft)
05.03.2015 07:45 -1,2 C 1,1 C 82 % 82 % 1031,9 hPa 0,0 l/m 3,9 km/h (1 Bft) S 180 -3,9 C -2,8 C 3,5 km/h (1 Bft)
05.03.2015 07:50 -1,2 C 1,1 C 82 % 82 % 1031,9 hPa 0,0 l/m 3,7 km/h (1 Bft) W-SW 247 -3,9 C -2,7 C 2,7 km/h (1 Bft)
05.03.2015 07:55 -1,3 C 1,1 C 81 % 81 % 1032,1 hPa 0,0 l/m 3,4 km/h (1 Bft) S 180 -4,1 C -2,4 C 4,3 km/h (1 Bft)
05.03.2015 08:00 -0,9 C 1,1 C 81 % 81 % 1032,1 hPa 0,0 l/m 3,5 km/h (1 Bft) SO 135 -3,7 C -2,4 C 3,9 km/h (1 Bft)
05.03.2015 08:05 -0,7 C 1,1 C 81 % 81 % 1032,1 hPa 0,0 l/m 3,2 km/h (1 Bft) S-SW 202 -3,5 C -1,8 C 3,9 km/h (1 Bft)
05.03.2015 08:10 -1,1 C 1,1 C 80 % 80 % 1032,1 hPa 0,0 l/m 3,2 km/h (1 Bft) W-SW 247 -4,1 C -1,7 C 5,3 km/h (1 Bft)
05.03.2015 08:15 -1,1 C 1,1 C 80 % 80 % 1032,1 hPa 0,0 l/m 3,7 km/h (1 Bft) W-SW 247 -4,1 C -2,2 C 6,0 km/h (2 Bft)
05.03.2015 08:20 -1,0 C 1,1 C 80 % 80 % 1032,1 hPa 0,0 l/m 2,7 km/h (1 Bft) W-SW 247 -4,0 C -1,6 C 2,4 km/h (1 Bft)
05.03.2015 08:25 -1,0 C 1,1 C 81 % 81 % 1032,1 hPa 0,0 l/m 2,6 km/h (1 Bft) W-SW 247 -3,8 C -1,3 C 2,3 km/h (1 Bft)
05.03.2015 08:30 -0,8 C 1,1 C 81 % 81 % 1032,1 hPa 0,0 l/m 2,6 km/h (1 Bft) SW 225 -3,6 C -1,3 C 2,1 km/h (1 Bft)
05.03.2015 08:35 -0,7 C 1,1 C 80 % 80 % 1032,3 hPa 0,0 l/m 2,4 km/h (1 Bft) NW 315 -3,7 C -0,9 C 2,9 km/h (1 Bft)
05.03.2015 08:40 -0,9 C 1,1 C 80 % 80 % 1032,3 hPa 0,0 l/m 3,1 km/h (1 Bft) W 270 -3,9 C -1,5 C 4,7 km/h (1 Bft)
05.03.2015 08:45 -0,9 C 1,1 C 80 % 80 % 1032,3 hPa 0,0 l/m 3,9 km/h (1 Bft) W-SW 247 -3,9 C -2,0 C 8,9 km/h (2 Bft)
05.03.2015 08:50 -0,9 C 1,1 C 79 % 79 % 1032,3 hPa 0,0 l/m 4,3 km/h (1 Bft) W 270 -4,1 C -2,4 C 3,9 km/h (1 Bft)
05.03.2015 08:55 -0,7 C 1,1 C 79 % 79 % 1032,6 hPa 0,0 l/m 3,9 km/h (1 Bft) W-SW 247 -3,9 C -2,1 C 3,4 km/h (1 Bft)
05.03.2015 09:00 -0,6 C 1,1 C 79 % 79 % 1032,6 hPa 0,0 l/m 3,4 km/h (1 Bft) W-NW 292 -3,8 C -1,6 C 3,4 km/h (1 Bft)
05.03.2015 09:05 -0,4 C 1,1 C 79 % 79 % 1032,6 hPa 0,0 l/m 3,5 km/h (1 Bft) W 270 -3,6 C -1,6 C 5,5 km/h (1 Bft)
05.03.2015 09:10 -0,3 C 1,1 C 79 % 79 % 1032,6 hPa 0,0 l/m 3,7 km/h (1 Bft) W-SW 247 -3,5 C -1,4 C 4,3 km/h (1 Bft)
05.03.2015 09:15 -0,4 C 1,1 C 79 % 79 % 1032,8 hPa 0,0 l/m 4,0 km/h (1 Bft) N-NW 337 -3,6 C -1,6 C 6,1 km/h (2 Bft)
05.03.2015 09:20 -0,3 C 1,1 C 79 % 79 % 1032,8 hPa 0,0 l/m 3,9 km/h (1 Bft) W 270 -3,5 C -1,4 C 3,5 km/h (1 Bft)
05.03.2015 09:25 -0,2 C 1,1 C 78 % 78 % 1032,8 hPa 0,0 l/m 3,7 km/h (1 Bft) W-SW 247 -3,6 C -1,2 C 3,9 km/h (1 Bft)
05.03.2015 09:30 0,1 C 1,1 C 78 % 78 % 1032,8 hPa 0,0 l/m 3,7 km/h (1 Bft) W 270 -3,3 C -0,8 C 5,8 km/h (2 Bft)
05.03.2015 09:35 -0,4 C 1,1 C 78 % 78 % 1032,8 hPa 0,0 l/m 3,9 km/h (1 Bft) W-NW 292 -3,8 C -1,1 C 6,9 km/h (2 Bft)
05.03.2015 09:40 -0,5 C 1,1 C 78 % 78 % 1032,8 hPa 0,0 l/m 5,0 km/h (1 Bft) W 270 -3,9 C -2,2 C 9,2 km/h (2 Bft)
05.03.2015 09:45 -0,5 C 1,1 C 78 % 78 % 1032,8 hPa 0,0 l/m 5,1 km/h (1 Bft) W-NW 292 -3,9 C -2,3 C 5,1 km/h (1 Bft)
05.03.2015 09:50 -0,3 C 1,1 C 78 % 78 % 1032,8 hPa 0,0 l/m 5,6 km/h (1 Bft) NW 315 -3,7 C -2,3 C 8,5 km/h (2 Bft)
05.03.2015 09:55 0,1 C 1,1 C 78 % 78 % 1032,9 hPa 0,0 l/m 5,1 km/h (1 Bft) W 270 -3,3 C -1,7 C 7,1 km/h (2 Bft)
05.03.2015 10:00 0,1 C 1,1 C 77 % 77 % 1032,9 hPa 0,0 l/m 5,8 km/h (2 Bft) W 270 -3,4 C -1,5 C 8,7 km/h (2 Bft)
05.03.2015 10:05 0,4 C 1,1 C 77 % 77 % 1032,9 hPa 0,0 l/m 5,5 km/h (1 Bft) NW 315 -3,1 C -1,2 C 3,7 km/h (1 Bft)
05.03.2015 10:10 1,1 C 1,2 C 76 % 76 % 1032,9 hPa 0,0 l/m 2,9 km/h (1 Bft) NO 45 -2,6 C 0,8 C 1,8 km/h (1 Bft)
05.03.2015 10:15 0,6 C 1,2 C 76 % 76 % 1032,9 hPa 0,0 l/m 2,3 km/h (1 Bft) N-NW 337 -3,1 C 1,4 C 3,9 km/h (1 Bft)
05.03.2015 10:20 0,2 C 1,1 C 75 % 75 % 1032,9 hPa 0,0 l/m 2,9 km/h (1 Bft) W-NW 292 -3,7 C 0,6 C 4,3 km/h (1 Bft)
05.03.2015 10:25 0,3 C 1,1 C 75 % 75 % 1032,9 hPa 0,0 l/m 3,9 km/h (1 Bft) N 360 -3,6 C -0,2 C 8,7 km/h (2 Bft)
05.03.2015 10:30 0,2 C 1,1 C 75 % 75 % 1032,9 hPa 0,0 l/m 4,5 km/h (1 Bft) W-NW 292 -3,7 C -0,8 C 4,7 km/h (1 Bft)
05.03.2015 10:35 0,3 C 1,1 C 75 % 75 % 1033,2 hPa 0,0 l/m 4,5 km/h (1 Bft) W 270 -3,6 C -0,8 C 7,6 km/h (2 Bft)
05.03.2015 10:40 0,5 C 1,1 C 75 % 75 % 1033,2 hPa 0,0 l/m 4,2 km/h (1 Bft) NW 315 -3,4 C -0,4 C 5,6 km/h (1 Bft)
05.03.2015 10:45 0,8 C 1,1 C 75 % 75 % 1033,2 hPa 0,0 l/m 3,7 km/h (1 Bft) NW 315 -3,1 C 0,1 C 2,9 km/h (1 Bft)
05.03.2015 10:50 0,9 C 1,2 C 75 % 75 % 1033,2 hPa 0,0 l/m 2,3 km/h (1 Bft) NW 315 -3,0 C 1,2 C 4,7 km/h (1 Bft)
05.03.2015 10:55 0,7 C 1,2 C 74 % 74 % 1033,1 hPa 0,0 l/m 1,9 km/h (1 Bft) W-SW 247 -3,4 C 1,4 C 4,8 km/h (1 Bft)
05.03.2015 11:00 0,2 C 1,1 C 74 % 74 % 1033,1 hPa 0,0 l/m 2,3 km/h (1 Bft) W-NW 292 -3,9 C 1,0 C 0,0 km/h (0 Bft)
05.03.2015 11:05 0,2 C 1,1 C 74 % 74 % 1033,1 hPa 0,0 l/m 2,6 km/h (1 Bft) NW 315 -3,9 C 0,6 C 5,0 km/h (1 Bft)
05.03.2015 11:10 0,3 C 1,1 C 74 % 74 % 1033,1 hPa 0,0 l/m 2,7 km/h (1 Bft) NW 315 -3,8 C 0,3 C 2,1 km/h (1 Bft)
05.03.2015 11:15 0,7 C 1,1 C 74 % 74 % 1033,1 hPa 0,0 l/m 2,9 km/h (1 Bft) NW 315 -3,4 C 0,4 C 4,7 km/h (1 Bft)
05.03.2015 11:20 0,9 C 1,2 C 73 % 73 % 1033,1 hPa 0,0 l/m 4,0 km/h (1 Bft) NW 315 -3,4 C 0,3 C 5,5 km/h (1 Bft)
05.03.2015 11:25 1,4 C 1,1 C 73 % 73 % 1033,1 hPa 0,0 l/m 3,9 km/h (1 Bft) NW 315 -2,9 C 0,9 C 7,2 km/h (2 Bft)
05.03.2015 11:30 1,8 C 1,1 C 72 % 72 % 1033,1 hPa 0,0 l/m 2,6 km/h (1 Bft) NW 315 -2,7 C 2,3 C 2,3 km/h (1 Bft)
05.03.2015 11:35 1,9 C 1,1 C 71 % 71 % 1033,2 hPa 0,0 l/m 2,3 km/h (1 Bft) W-SW 247 -2,8 C 2,7 C 5,6 km/h (1 Bft)
05.03.2015 11:40 2,2 C 1,1 C 69 % 69 % 1033,2 hPa 0,0 l/m 2,7 km/h (1 Bft) NW 315 -2,9 C 3,2 C 3,2 km/h (1 Bft)
05.03.2015 11:45 2,2 C 1,1 C 68 % 68 % 1033,2 hPa 0,0 l/m 3,9 km/h (1 Bft) N 360 -3,1 C 2,9 C 7,2 km/h (2 Bft)
05.03.2015 11:50 1,9 C 1,1 C 67 % 67 % 1033,2 hPa 0,0 l/m 3,5 km/h (1 Bft) W 270 -3,6 C 3,1 C 2,4 km/h (1 Bft)
05.03.2015 11:55 1,4 C 1,1 C 67 % 67 % 1033,4 hPa 0,0 l/m 3,9 km/h (1 Bft) W 270 -4,0 C 2,6 C 9,2 km/h (2 Bft)
05.03.2015 12:00 0,7 C 1,1 C 68 % 68 % 1033,4 hPa 0,0 l/m 4,2 km/h (1 Bft) N-NW 337 -4,5 C 1,3 C 7,2 km/h (2 Bft)
05.03.2015 12:05 0,4 C 1,1 C 68 % 68 % 1033,4 hPa 0,0 l/m 5,3 km/h (1 Bft) W 270 -4,8 C 0,1 C 8,7 km/h (2 Bft)
05.03.2015 12:10 0,2 C 1,1 C 69 % 69 % 1033,4 hPa 0,0 l/m 6,4 km/h (2 Bft) N-NW 337 -4,8 C -1,8 C 7,1 km/h (2 Bft)
05.03.2015 12:15 0,4 C 1,1 C 70 % 70 % 1033,4 hPa 0,0 l/m 5,3 km/h (1 Bft) NW 315 -4,4 C -1,4 C 8,0 km/h (2 Bft)
05.03.2015 12:20 0,5 C 1,1 C 71 % 71 % 1033,4 hPa 0,0 l/m 2,7 km/h (1 Bft) NW 315 -4,1 C 0,3 C 3,4 km/h (1 Bft)
05.03.2015 12:25 0,5 C 1,1 C 71 % 71 % 1033,4 hPa 0,0 l/m 2,9 km/h (1 Bft) NW 315 -4,1 C 0,4 C 7,1 km/h (2 Bft)
05.03.2015 12:30 0,6 C 1,1 C 71 % 71 % 1033,4 hPa 0,0 l/m 3,9 km/h (1 Bft) NW 315 -4,0 C -0,1 C 7,2 km/h (2 Bft)
05.03.2015 12:35 0,5 C 1,1 C 71 % 71 % 1033,6 hPa 0,0 l/m 4,2 km/h (1 Bft) NW 315 -4,1 C -0,3 C 2,7 km/h (1 Bft)
05.03.2015 12:40 1,1 C 1,2 C 71 % 71 % 1033,6 hPa 0,0 l/m 4,2 km/h (1 Bft) W 270 -3,6 C 0,2 C 4,3 km/h (1 Bft)
05.03.2015 12:45 1,9 C 1,1 C 69 % 69 % 1033,6 hPa 0,0 l/m 4,2 km/h (1 Bft) W-SW 247 -3,2 C 0,9 C 8,0 km/h (2 Bft)
05.03.2015 12:50 2,2 C 1,1 C 68 % 68 % 1033,6 hPa 0,0 l/m 4,5 km/h (1 Bft) N 360 -3,1 C 1,7 C 5,1 km/h (1 Bft)
05.03.2015 12:55 1,5 C 1,1 C 67 % 67 % 1033,6 hPa 0,0 l/m 4,8 km/h (1 Bft) NW 315 -3,9 C 1,6 C 5,3 km/h (1 Bft)
05.03.2015 13:00 1,0 C 1,1 C 67 % 67 % 1033,6 hPa 0,0 l/m 5,0 km/h (1 Bft) W 270 -4,4 C 0,8 C 4,8 km/h (1 Bft)
05.03.2015 13:05 1,0 C 1,1 C 68 % 68 % 1033,6 hPa 0,0 l/m 4,8 km/h (1 Bft) NW 315 -4,2 C 0,6 C 3,1 km/h (1 Bft)
05.03.2015 13:10 1,1 C 1,1 C 68 % 68 % 1033,6 hPa 0,0 l/m 4,5 km/h (1 Bft) W 270 -4,1 C 0,8 C 4,8 km/h (1 Bft)
05.03.2015 13:15 1,6 C 1,1 C 68 % 68 % 1033,4 hPa 0,0 l/m 3,9 km/h (1 Bft) W-SW 247 -3,7 C 1,5 C 6,4 km/h (2 Bft)
05.03.2015 13:20 1,9 C 1,1 C 67 % 67 % 1033,4 hPa 0,0 l/m 3,7 km/h (1 Bft) W 270 -3,6 C 2,0 C 3,2 km/h (1 Bft)
05.03.2015 13:25 1,8 C 1,1 C 66 % 66 % 1033,4 hPa 0,0 l/m 4,5 km/h (1 Bft) W 270 -3,9 C 1,9 C 6,6 km/h (2 Bft)
05.03.2015 13:30 1,6 C 1,1 C 66 % 66 % 1033,4 hPa 0,0 l/m 5,0 km/h (1 Bft) W-SW 247 -4,1 C 1,7 C 8,9 km/h (2 Bft)
05.03.2015 13:35 1,4 C 1,1 C 66 % 66 % 1033,6 hPa 0,0 l/m 5,8 km/h (2 Bft) W 270 -4,2 C 1,2 C 5,8 km/h (2 Bft)
05.03.2015 13:40 1,3 C 1,1 C 66 % 66 % 1033,6 hPa 0,0 l/m 5,5 km/h (1 Bft) W-SW 247 -4,3 C 1,1 C 6,9 km/h (2 Bft)
05.03.2015 13:45 1,4 C 1,1 C 66 % 66 % 1033,6 hPa 0,0 l/m 4,8 km/h (1 Bft) NW 315 -4,2 C 1,1 C 6,1 km/h (2 Bft)
05.03.2015 13:50 1,2 C 1,1 C 66 % 66 % 1033,6 hPa 0,0 l/m 4,3 km/h (1 Bft) W-SW 247 -4,4 C 1,2 C 6,1 km/h (2 Bft)
05.03.2015 13:55 1,1 C 1,1 C 66 % 66 % 1033,7 hPa 0,0 l/m 4,5 km/h (1 Bft) W-SW 247 -4,5 C 0,9 C 7,9 km/h (2 Bft)
05.03.2015 14:00 1,6 C 1,1 C 66 % 66 % 1033,7 hPa 0,0 l/m 5,0 km/h (1 Bft) W-SW 247 -4,1 C 0,7 C 4,2 km/h (1 Bft)
05.03.2015 14:05 1,9 C 1,1 C 65 % 65 % 1033,7 hPa 0,0 l/m 5,0 km/h (1 Bft) W 270 -4,0 C 1,2 C 4,0 km/h (1 Bft)
05.03.2015 14:10 2,0 C 1,1 C 64 % 64 % 1033,7 hPa 0,0 l/m 3,9 km/h (1 Bft) W 270 -4,1 C 2,5 C 5,5 km/h (1 Bft)
05.03.2015 14:15 1,8 C 1,1 C 63 % 63 % 1033,7 hPa 0,0 l/m 4,2 km/h (1 Bft) W-NW 292 -4,5 C 2,4 C 10,9 km/h (2 Bft)
05.03.2015 14:20 1,7 C 1,1 C 63 % 63 % 1033,7 hPa 0,0 l/m 5,3 km/h (1 Bft) W-NW 292 -4,6 C 1,4 C 7,6 km/h (2 Bft)
05.03.2015 14:25 1,6 C 1,1 C 64 % 64 % 1033,7 hPa 0,0 l/m 4,8 km/h (1 Bft) W 270 -4,5 C 1,4 C 3,2 km/h (1 Bft)
05.03.2015 14:30 1,2 C 1,1 C 64 % 64 % 1033,7 hPa 0,0 l/m 4,0 km/h (1 Bft) W 270 -4,8 C 1,6 C 3,4 km/h (1 Bft)
05.03.2015 14:35 0,8 C 1,1 C 65 % 65 % 1033,7 hPa 0,0 l/m 5,1 km/h (1 Bft) W-SW 247 -5,0 C 0,5 C 11,9 km/h (2 Bft)
05.03.2015 14:40 0,9 C 1,2 C 66 % 66 % 1033,7 hPa 0,0 l/m 6,1 km/h (2 Bft) W-SW 247 -4,7 C -0,6 C 7,9 km/h (2 Bft)
05.03.2015 14:45 1,1 C 1,2 C 66 % 66 % 1033,7 hPa 0,0 l/m 5,3 km/h (1 Bft) W-SW 247 -4,5 C -0,3 C 5,8 km/h (2 Bft)
05.03.2015 14:50 1,1 C 1,2 C 66 % 66 % 1033,7 hPa 0,0 l/m 4,3 km/h (1 Bft) W-SW 247 -4,5 C 0,3 C 5,0 km/h (1 Bft)
05.03.2015 14:55 1,2 C 1,1 C 66 % 66 % 1033,5 hPa 0,0 l/m 4,7 km/h (1 Bft) W-NW 292 -4,4 C 0,4 C 7,7 km/h (2 Bft)
05.03.2015 15:00 1,1 C 1,1 C 66 % 66 % 1033,5 hPa 0,0 l/m 5,0 km/h (1 Bft) NW 315 -4,5 C 0,4 C 9,0 km/h (2 Bft)
05.03.2015 15:05 1,4 C 1,1 C 66 % 66 % 1033,5 hPa 0,0 l/m 4,7 km/h (1 Bft) W-SW 247 -4,2 C 0,5 C 3,2 km/h (1 Bft)
05.03.2015 15:10 1,3 C 1,1 C 66 % 66 % 1033,5 hPa 0,0 l/m 4,7 km/h (1 Bft) NW 315 -4,3 C 0,5 C 4,8 km/h (1 Bft)
05.03.2015 15:15 1,2 C 1,1 C 66 % 66 % 1033,6 hPa 0,0 l/m 4,7 km/h (1 Bft) W 270 -4,4 C 0,5 C 4,8 km/h (1 Bft)
05.03.2015 15:20 1,4 C 1,1 C 66 % 66 % 1033,6 hPa 0,0 l/m 3,9 km/h (1 Bft) W 270 -4,2 C 1,0 C 1,6 km/h (1 Bft)
05.03.2015 15:25 1,2 C 1,1 C 66 % 66 % 1033,6 hPa 0,0 l/m 4,0 km/h (1 Bft) W 270 -4,4 C 1,0 C 5,6 km/h (1 Bft)
05.03.2015 15:30 1,3 C 1,1 C 66 % 66 % 1033,6 hPa 0,0 l/m 4,3 km/h (1 Bft) W 270 -4,3 C 0,8 C 5,8 km/h (2 Bft)
05.03.2015 15:35 1,1 C 1,1 C 65 % 65 % 1033,9 hPa 0,0 l/m 5,0 km/h (1 Bft) W 270 -4,7 C 0,4 C 5,3 km/h (1 Bft)
05.03.2015 15:40 1,2 C 1,1 C 65 % 65 % 1033,9 hPa 0,0 l/m 5,0 km/h (1 Bft) W 270 -4,6 C 0,4 C 5,1 km/h (1 Bft)
05.03.2015 15:45 1,3 C 1,1 C 65 % 65 % 1033,9 hPa 0,0 l/m 4,5 km/h (1 Bft) W-NW 292 -4,5 C 0,6 C 6,8 km/h (2 Bft)
05.03.2015 15:50 1,1 C 1,1 C 65 % 65 % 1033,9 hPa 0,0 l/m 4,8 km/h (1 Bft) NW 315 -4,7 C 0,4 C 4,2 km/h (1 Bft)
05.03.2015 15:55 1,1 C 1,1 C 65 % 65 % 1034,1 hPa 0,0 l/m 5,5 km/h (1 Bft) W-NW 292 -4,7 C 0,2 C 7,7 km/h (2 Bft)
05.03.2015 16:00 1,2 C 1,1 C 65 % 65 % 1034,1 hPa 0,0 l/m 4,7 km/h (1 Bft) NW 315 -4,6 C 0,7 C 4,2 km/h (1 Bft)
05.03.2015 16:05 1,2 C 1,1 C 65 % 65 % 1034,1 hPa 0,0 l/m 4,0 km/h (1 Bft) W-SW 247 -4,6 C 1,0 C 5,5 km/h (1 Bft)
05.03.2015 16:10 0,9 C 1,2 C 65 % 65 % 1034,1 hPa 0,0 l/m 4,2 km/h (1 Bft) W 270 -4,9 C 0,7 C 4,5 km/h (1 Bft)
05.03.2015 16:15 1,1 C 1,2 C 66 % 66 % 1033,9 hPa 0,0 l/m 4,0 km/h (1 Bft) W-NW 292 -4,5 C 0,7 C 2,9 km/h (1 Bft)
05.03.2015 16:20 1,1 C 1,2 C 66 % 66 % 1033,9 hPa 0,0 l/m 3,7 km/h (1 Bft) W-SW 247 -4,5 C 0,9 C 6,4 km/h (2 Bft)
05.03.2015 16:25 1,1 C 1,2 C 66 % 66 % 1033,9 hPa 0,0 l/m 3,7 km/h (1 Bft) W 270 -4,5 C 0,9 C 4,3 km/h (1 Bft)
05.03.2015 16:30 1,1 C 1,2 C 66 % 66 % 1033,9 hPa 0,0 l/m 3,1 km/h (1 Bft) W-SW 247 -4,5 C 1,1 C 4,5 km/h (1 Bft)
05.03.2015 16:35 0,8 C 1,2 C 66 % 66 % 1034,1 hPa 0,0 l/m 3,2 km/h (1 Bft) W-SW 247 -4,8 C 0,8 C 6,4 km/h (2 Bft)
05.03.2015 16:40 0,6 C 1,2 C 66 % 66 % 1034,1 hPa 0,0 l/m 4,0 km/h (1 Bft) W-SW 247 -5,0 C 0,0 C 3,5 km/h (1 Bft)
05.03.2015 16:45 0,5 C 1,1 C 66 % 66 % 1034,1 hPa 0,0 l/m 4,3 km/h (1 Bft) W 270 -5,1 C -0,4 C 4,8 km/h (1 Bft)
05.03.2015 16:50 0,3 C 1,1 C 67 % 67 % 1034,1 hPa 0,0 l/m 4,2 km/h (1 Bft) W-NW 292 -5,1 C -0,7 C 3,2 km/h (1 Bft)
05.03.2015 16:55 0,2 C 1,1 C 67 % 67 % 1034,1 hPa 0,0 l/m 4,0 km/h (1 Bft) W-SW 247 -5,2 C -0,8 C 5,0 km/h (1 Bft)
05.03.2015 17:00 0,3 C 1,1 C 68 % 68 % 1034,1 hPa 0,0 l/m 3,2 km/h (1 Bft) W-SW 247 -4,9 C -0,5 C 1,8 km/h (1 Bft)
05.03.2015 17:05 0,3 C 1,1 C 68 % 68 % 1034,1 hPa 0,0 l/m 2,9 km/h (1 Bft) SW 225 -4,9 C -0,3 C 0,0 km/h (0 Bft)
05.03.2015 17:10 0,3 C 1,1 C 68 % 68 % 1034,1 hPa 0,0 l/m 2,3 km/h (1 Bft) SW 225 -4,9 C 0,1 C 0,0 km/h (0 Bft)
05.03.2015 17:15 0,1 C 1,1 C 68 % 68 % 1034,1 hPa 0,0 l/m 2,1 km/h (1 Bft) W-SW 247 -5,1 C 0,1 C 4,8 km/h (1 Bft)
05.03.2015 17:20 -0,3 C 1,1 C 68 % 68 % 1034,1 hPa 0,0 l/m 2,4 km/h (1 Bft) W-SW 247 -5,5 C -0,3 C 2,1 km/h (1 Bft)
05.03.2015 17:25 -0,4 C 1,1 C 69 % 69 % 1034,1 hPa 0,0 l/m 2,7 km/h (1 Bft) S 180 -5,4 C -1,1 C 1,8 km/h (1 Bft)
05.03.2015 17:30 -0,5 C 1,1 C 69 % 69 % 1034,1 hPa 0,0 l/m 2,3 km/h (1 Bft) S 180 -5,5 C -0,9 C 4,0 km/h (1 Bft)
05.03.2015 17:35 -0,5 C 1,1 C 69 % 69 % 1034,1 hPa 0,0 l/m 2,7 km/h (1 Bft) SW 225 -5,5 C -1,3 C 3,7 km/h (1 Bft)
05.03.2015 17:40 -0,7 C 1,1 C 70 % 70 % 1034,1 hPa 0,0 l/m 3,1 km/h (1 Bft) S-SW 202 -5,5 C -1,8 C 4,3 km/h (1 Bft)
05.03.2015 17:45 -0,8 C 1,1 C 71 % 71 % 1034,1 hPa 0,0 l/m 2,7 km/h (1 Bft) S-SW 202 -5,4 C -1,7 C 2,9 km/h (1 Bft)
05.03.2015 17:50 -1,1 C 1,1 C 71 % 71 % 1034,1 hPa 0,0 l/m 2,4 km/h (1 Bft) S 180 -5,7 C -1,9 C 3,1 km/h (1 Bft)
05.03.2015 17:55 -1,2 C 1,1 C 72 % 72 % 1034,2 hPa 0,0 l/m 2,7 km/h (1 Bft) S 180 -5,6 C -2,2 C 3,5 km/h (1 Bft)
05.03.2015 18:00 -1,2 C 1,1 C 72 % 72 % 1034,2 hPa 0,0 l/m 3,7 km/h (1 Bft) S 180 -5,6 C -3,1 C 5,5 km/h (1 Bft)
05.03.2015 18:05 -1,3 C 1,1 C 73 % 73 % 1034,2 hPa 0,0 l/m 3,9 km/h (1 Bft) S-SW 202 -5,5 C -3,3 C 4,7 km/h (1 Bft)
05.03.2015 18:10 -1,6 C 1,1 C 73 % 73 % 1034,2 hPa 0,0 l/m 3,7 km/h (1 Bft) S 180 -5,8 C -3,6 C 4,0 km/h (1 Bft)
05.03.2015 18:15 -1,7 C 1,1 C 73 % 73 % 1034,4 hPa 0,0 l/m 3,7 km/h (1 Bft) S 180 -5,9 C -3,8 C 3,7 km/h (1 Bft)
05.03.2015 18:20 -1,7 C 1,1 C 74 % 74 % 1034,4 hPa 0,0 l/m 3,5 km/h (1 Bft) S 180 -5,7 C -3,7 C 4,8 km/h (1 Bft)
05.03.2015 18:25 -1,7 C 1,1 C 74 % 74 % 1034,4 hPa 0,0 l/m 3,4 km/h (1 Bft) SW 225 -5,7 C -3,7 C 2,4 km/h (1 Bft)
05.03.2015 18:30 -1,7 C 1,1 C 74 % 74 % 1034,4 hPa 0,0 l/m 3,4 km/h (1 Bft) S 180 -5,7 C -3,6 C 5,1 km/h (1 Bft)
05.03.2015 18:35 -1,7 C 1,1 C 74 % 74 % 1034,4 hPa 0,0 l/m 3,2 km/h (1 Bft) S-SW 202 -5,7 C -3,4 C 4,5 km/h (1 Bft)
05.03.2015 18:40 -1,7 C 1,1 C 74 % 74 % 1034,4 hPa 0,0 l/m 3,4 km/h (1 Bft) S 180 -5,7 C -3,4 C 5,1 km/h (1 Bft)
05.03.2015 18:45 -1,5 C 1,1 C 75 % 75 % 1034,4 hPa 0,0 l/m 3,2 km/h (1 Bft) S-SW 202 -5,3 C -3,4 C 3,9 km/h (1 Bft)
05.03.2015 18:50 -1,4 C 1,1 C 75 % 75 % 1034,4 hPa 0,0 l/m 3,5 km/h (1 Bft) S 180 -5,2 C -3,3 C 5,3 km/h (1 Bft)
05.03.2015 18:55 -1,4 C 1,1 C 75 % 75 % 1034,7 hPa 0,0 l/m 3,5 km/h (1 Bft) S 180 -5,2 C -3,3 C 4,3 km/h (1 Bft)
05.03.2015 19:00 -1,3 C 1,1 C 75 % 75 % 1034,7 hPa 0,0 l/m 4,0 km/h (1 Bft) S 180 -5,1 C -3,4 C 5,5 km/h (1 Bft)
05.03.2015 19:05 -1,3 C 1,1 C 75 % 75 % 1034,7 hPa 0,0 l/m 4,3 km/h (1 Bft) S 180 -5,1 C -3,5 C 4,5 km/h (1 Bft)
05.03.2015 19:10 -1,3 C 1,1 C 74 % 74 % 1034,7 hPa 0,0 l/m 4,5 km/h (1 Bft) S 180 -5,3 C -3,5 C 4,0 km/h (1 Bft)
05.03.2015 19:15 -1,4 C 1,1 C 74 % 74 % 1034,8 hPa 0,0 l/m 4,2 km/h (1 Bft) S 180 -5,4 C -3,4 C 2,9 km/h (1 Bft)
05.03.2015 19:20 -1,4 C 1,1 C 74 % 74 % 1034,8 hPa 0,0 l/m 3,7 km/h (1 Bft) S-SO 157 -5,4 C -3,2 C 5,1 km/h (1 Bft)
05.03.2015 19:25 -1,3 C 1,1 C 74 % 74 % 1034,8 hPa 0,0 l/m 4,0 km/h (1 Bft) S 180 -5,3 C -3,4 C 6,4 km/h (2 Bft)
05.03.2015 19:30 -1,3 C 1,1 C 74 % 74 % 1034,8 hPa 0,0 l/m 4,3 km/h (1 Bft) SW 225 -5,3 C -3,5 C 4,5 km/h (1 Bft)
05.03.2015 19:35 -1,3 C 1,1 C 74 % 74 % 1034,8 hPa 0,0 l/m 4,3 km/h (1 Bft) S 180 -5,3 C -3,5 C 5,8 km/h (2 Bft)
05.03.2015 19:40 -1,3 C 1,1 C 74 % 74 % 1034,8 hPa 0,0 l/m 4,0 km/h (1 Bft) S 180 -5,3 C -3,3 C 4,3 km/h (1 Bft)
05.03.2015 19:45 -1,4 C 1,1 C 74 % 74 % 1034,8 hPa 0,0 l/m 4,2 km/h (1 Bft) SW 225 -5,4 C -3,6 C 4,0 km/h (1 Bft)
05.03.2015 19:50 -1,5 C 1,1 C 74 % 74 % 1034,8 hPa 0,0 l/m 4,2 km/h (1 Bft) S-SW 202 -5,5 C -3,6 C 6,0 km/h (2 Bft)
05.03.2015 19:55 -1,4 C 1,1 C 74 % 74 % 1034,9 hPa 0,0 l/m 4,3 km/h (1 Bft) S-SW 202 -5,4 C -3,8 C 6,0 km/h (2 Bft)
05.03.2015 20:00 -1,5 C 1,1 C 74 % 74 % 1034,9 hPa 0,0 l/m 4,5 km/h (1 Bft) S 180 -5,5 C -3,8 C 4,8 km/h (1 Bft)
05.03.2015 20:05 -1,5 C 1,1 C 74 % 74 % 1034,9 hPa 0,0 l/m 3,9 km/h (1 Bft) S-SO 157 -5,5 C -3,5 C 3,1 km/h (1 Bft)
05.03.2015 20:10 -1,6 C 1,1 C 75 % 75 % 1034,9 hPa 0,0 l/m 3,7 km/h (1 Bft) S 180 -5,4 C -3,4 C 4,8 km/h (1 Bft)
05.03.2015 20:15 -1,5 C 1,1 C 75 % 75 % 1035,2 hPa 0,0 l/m 4,3 km/h (1 Bft) S 180 -5,3 C -3,8 C 6,8 km/h (2 Bft)
05.03.2015 20:20 -1,3 C 1,1 C 75 % 75 % 1035,2 hPa 0,0 l/m 4,5 km/h (1 Bft) SW 225 -5,1 C -3,7 C 4,7 km/h (1 Bft)
05.03.2015 20:25 -1,4 C 1,1 C 75 % 75 % 1035,2 hPa 0,0 l/m 4,0 km/h (1 Bft) W-SW 247 -5,2 C -3,4 C 2,4 km/h (1 Bft)
05.03.2015 20:30 -1,4 C 1,1 C 75 % 75 % 1035,2 hPa 0,0 l/m 2,7 km/h (1 Bft) SW 225 -5,2 C -2,6 C 2,1 km/h (1 Bft)
05.03.2015 20:35 -1,4 C 1,1 C 75 % 75 % 1035,3 hPa 0,0 l/m 1,9 km/h (1 Bft) W 270 -5,2 C -2,1 C 0,0 km/h (0 Bft)
05.03.2015 20:40 -1,6 C 1,1 C 74 % 74 % 1035,3 hPa 0,0 l/m 0,6 km/h (0 Bft) S 180 -5,6 C -2,2 C 0,0 km/h (0 Bft)
05.03.2015 20:45 -1,6 C 1,1 C 74 % 74 % 1035,3 hPa 0,0 l/m 0,2 km/h (0 Bft) W-SW 247 -5,6 C -2,4 C 0,0 km/h (0 Bft)
05.03.2015 20:50 -1,6 C 1,1 C 75 % 75 % 1035,3 hPa 0,0 l/m 0,6 km/h (0 Bft) S 180 -5,4 C -2,6 C 4,0 km/h (1 Bft)
05.03.2015 20:55 -1,6 C 1,1 C 75 % 75 % 1035,2 hPa 0,0 l/m 1,9 km/h (1 Bft) S 180 -5,4 C -2,6 C 3,9 km/h (1 Bft)
05.03.2015 21:00 -1,6 C 1,1 C 75 % 75 % 1035,2 hPa 0,0 l/m 3,2 km/h (1 Bft) SW 225 -5,4 C -3,4 C 3,1 km/h (1 Bft)
05.03.2015 21:05 -1,6 C 1,1 C 74 % 74 % 1035,2 hPa 0,0 l/m 1,9 km/h (1 Bft) S-SO 157 -5,6 C -2,7 C 0,0 km/h (0 Bft)
05.03.2015 21:10 -1,7 C 1,1 C 75 % 75 % 1035,2 hPa 0,0 l/m 0,5 km/h (0 Bft) S 180 -5,5 C -3,0 C 4,0 km/h (1 Bft)
05.03.2015 21:15 -1,7 C 1,1 C 75 % 75 % 1035,6 hPa 0,0 l/m 1,1 km/h (1 Bft) SO 135 -5,5 C -2,9 C 0,0 km/h (0 Bft)
05.03.2015 21:20 -2,1 C 1,1 C 75 % 75 % 1035,6 hPa 0,0 l/m 1,1 km/h (1 Bft) SW 225 -5,9 C -2,9 C 0,0 km/h (0 Bft)
05.03.2015 21:25 -2,3 C 1,1 C 75 % 75 % 1035,6 hPa 0,0 l/m 0,2 km/h (0 Bft) SW 225 -6,1 C -3,0 C 0,0 km/h (0 Bft)
05.03.2015 21:30 -2,6 C 1,1 C 75 % 75 % 1035,6 hPa 0,0 l/m 0,0 km/h (0 Bft) SW 225 -6,4 C -3,3 C 0,0 km/h (0 Bft)
05.03.2015 21:35 -2,6 C 1,1 C 75 % 75 % 1035,7 hPa 0,0 l/m 0,0 km/h (0 Bft) SO 135 -6,4 C -3,4 C 1,8 km/h (1 Bft)
05.03.2015 21:40 -2,6 C 1,1 C 75 % 75 % 1035,7 hPa 0,0 l/m 0,0 km/h (0 Bft) S-SO 157 -6,4 C -3,3 C 0,0 km/h (0 Bft)
05.03.2015 21:45 -2,6 C 1,1 C 75 % 75 % 1035,7 hPa 0,0 l/m 0,0 km/h (0 Bft) SO 135 -6,4 C -3,3 C 0,0 km/h (0 Bft)
05.03.2015 21:50 -2,6 C 1,1 C 75 % 75 % 1035,7 hPa 0,0 l/m 0,0 km/h (0 Bft) S-SO 157 -6,4 C -3,3 C 0,0 km/h (0 Bft)
05.03.2015 21:55 -2,6 C 1,1 C 75 % 75 % 1035,7 hPa 0,0 l/m 0,8 km/h (0 Bft) S-SW 202 -6,4 C -3,2 C 3,4 km/h (1 Bft)
05.03.2015 22:00 -2,6 C 1,1 C 75 % 75 % 1035,7 hPa 0,0 l/m 1,8 km/h (1 Bft) S 180 -6,4 C -2,9 C 0,0 km/h (0 Bft)
05.03.2015 22:05 -2,6 C 1,1 C 75 % 75 % 1035,7 hPa 0,0 l/m 2,1 km/h (1 Bft) S 180 -6,4 C -2,9 C 2,9 km/h (1 Bft)
05.03.2015 22:10 -2,6 C 1,1 C 75 % 75 % 1035,7 hPa 0,0 l/m 0,8 km/h (0 Bft) SO 135 -6,4 C -3,1 C 0,0 km/h (0 Bft)
05.03.2015 22:15 -2,6 C 1,1 C 75 % 75 % 1035,8 hPa 0,0 l/m 0,3 km/h (0 Bft) S-SW 202 -6,4 C -3,5 C 2,6 km/h (1 Bft)
05.03.2015 22:20 -2,6 C 1,1 C 76 % 76 % 1035,8 hPa 0,0 l/m 1,8 km/h (1 Bft) S-SW 202 -6,2 C -3,5 C 3,4 km/h (1 Bft)
05.03.2015 22:25 -2,6 C 1,1 C 75 % 75 % 1035,8 hPa 0,0 l/m 1,9 km/h (1 Bft) SO 135 -6,4 C -3,4 C 0,0 km/h (0 Bft)
05.03.2015 22:30 -2,7 C 1,1 C 76 % 76 % 1035,8 hPa 0,0 l/m 0,8 km/h (0 Bft) S-SO 157 -6,3 C -3,6 C 0,0 km/h (0 Bft)
05.03.2015 22:35 -2,7 C 1,1 C 76 % 76 % 1035,9 hPa 0,0 l/m 1,1 km/h (1 Bft) SO 135 -6,3 C -3,6 C 2,3 km/h (1 Bft)
05.03.2015 22:40 -2,9 C 1,1 C 76 % 76 % 1035,9 hPa 0,0 l/m 1,0 km/h (0 Bft) S 180 -6,5 C -3,8 C 0,0 km/h (0 Bft)
05.03.2015 22:45 -2,9 C 1,1 C 76 % 76 % 1035,9 hPa 0,0 l/m 1,0 km/h (0 Bft) SO 135 -6,5 C -3,9 C 2,3 km/h (1 Bft)
05.03.2015 22:50 -2,9 C 1,1 C 76 % 76 % 1035,9 hPa 0,0 l/m 1,8 km/h (1 Bft) S-SO 157 -6,5 C -3,9 C 3,4 km/h (1 Bft)
05.03.2015 22:55 -3,0 C 1,1 C 76 % 76 % 1035,8 hPa 0,0 l/m 1,9 km/h (1 Bft) SO 135 -6,6 C -3,9 C 2,4 km/h (1 Bft)
05.03.2015 23:00 -3,3 C 1,1 C 77 % 77 % 1035,8 hPa 0,0 l/m 1,4 km/h (1 Bft) S 180 -6,7 C -4,2 C 0,0 km/h (0 Bft)
05.03.2015 23:05 -3,3 C 1,2 C 77 % 77 % 1035,8 hPa 0,0 l/m 1,3 km/h (1 Bft) S-SO 157 -6,7 C -4,3 C 2,6 km/h (1 Bft)
05.03.2015 23:10 -3,3 C 1,2 C 77 % 77 % 1035,8 hPa 0,0 l/m 1,4 km/h (1 Bft) SO 135 -6,7 C -4,3 C 2,9 km/h (1 Bft)
05.03.2015 23:15 -3,3 C 1,2 C 77 % 77 % 1035,4 hPa 0,0 l/m 0,8 km/h (0 Bft) SO 135 -6,7 C -4,4 C 0,0 km/h (0 Bft)
05.03.2015 23:20 -3,3 C 1,2 C 77 % 77 % 1035,4 hPa 0,0 l/m 0,3 km/h (0 Bft) SO 135 -6,7 C -4,3 C 0,0 km/h (0 Bft)
05.03.2015 23:25 -3,2 C 1,2 C 77 % 77 % 1035,4 hPa 0,0 l/m 0,2 km/h (0 Bft) SO 135 -6,6 C -4,2 C 0,0 km/h (0 Bft)
05.03.2015 23:30 -3,1 C 1,1 C 78 % 78 % 1035,4 hPa 0,0 l/m 0,0 km/h (0 Bft) SO 135 -6,4 C -4,0 C 0,0 km/h (0 Bft)
05.03.2015 23:35 -3,1 C 1,1 C 78 % 78 % 1035,6 hPa 0,0 l/m 0,0 km/h (0 Bft) SO 135 -6,4 C -3,8 C 0,0 km/h (0 Bft)
05.03.2015 23:40 -3,1 C 1,1 C 78 % 78 % 1035,6 hPa 0,0 l/m 0,0 km/h (0 Bft) SO 135 -6,4 C -3,8 C 0,0 km/h (0 Bft)
05.03.2015 23:45 -3,1 C 1,1 C 78 % 78 % 1035,6 hPa 0,0 l/m 0,0 km/h (0 Bft) SO 135 -6,4 C -3,7 C 0,0 km/h (0 Bft)
05.03.2015 23:50 -3,1 C 1,1 C 78 % 78 % 1035,6 hPa 0,0 l/m 0,0 km/h (0 Bft) SO 135 -6,4 C -3,7 C 0,0 km/h (0 Bft)
05.03.2015 23:55 -3,1 C 1,1 C 78 % 78 % 1035,7 hPa 0,0 l/m 0,0 km/h (0 Bft) SO 135 -6,4 C -3,6 C 0,0 km/h (0 Bft)
_ Min-Zeit 23:20 23:55 14:20 14:20 00:10 - 23:55 - - 23:20 04:30 23:55
Minimum _ -3,3 C 1,1 C 63 % 63 % 1030,3 hPa - 0,0 km/h (0 Bft) - - -6,7 C -4,6 C 0,0 km/h (0 Bft)
_ Max-Zeit 12:50 23:25 07:35 07:35 22:50 23:55 04:30 - - 10:10 11:40 04:40
Maximum _ 2,2 C 1,2 C 83 % 83 % 1035,9 hPa 0,0 l/m 6,6 km/h
W-SW (2 Bft)
- - -2,6 C 3,2 C 12,7 km/h
N (3 Bft)
Durchschnitt _ -0,8 C 1,1 C 74 % 74 % 1033,1 hPa #0,0 l/m 3,4 km/h (1 Bft) W-SW - -4,8 C -1,9 C 4,4 km/h (1 Bft)